Content
SEND FEEDBACK

Daily
Averages
Monthly
Summary
United States of America

CASSCOE, ARKANSAS


Home > North America > United States > Arkansas
Elevation: 277 feet     Latitude: 35 45N     Longitude: 091 38W

WEATHER
 
SELECT A DAY
Number of Records: 457,345;   Date Range: 1/1/95 - 9/29/14
 
SHARE

PRINT THIS DATA

[ ← Previous Day ]
WEATHER ALMANAC - JANUARY 31, 2013
[ Next Day → ]
[ °C ]   °F
Weather ElementAverageHighLow
Temperature37.7 °F57.2 °F (3:36 pm)26.6 °F (5:55 am)
Dewpoint22.2 °F30.2 °F (12:55 pm)8.6 °F (11:35 pm)
Humidity55.8 %80 % (5:55 am)33 % (2:55 pm)
Barometer30.15 in30.39 in (11:15 pm)30.05 in (12:35 am)
Wind Speed8.4 mph16.1 mph (2:55 pm)
Wind Gust24.2 mph (5:36 pm)
Weather ElementAverage
Visibility10 mi
Wind DirectionWSW (252.1 °)

Weather ElementTotal
Precipitation---
Heating Degree Days23.1 (Base 65)
Averaged from 57 records on January 31, 2013
WEATHER CONDITIONS BREAKOUT
WIND DIRECTION BREAKOUT
WEATHER BY HOUR - JANUARY 31, 2013
[ °C ]   °F
Local TimeTemperatureDewpointHumidityBarometerVisibilityWind DirectionWind SpeedGust SpeedPrecipitationEventsConditions
12:35 AM30.2 °F21.2 °F69 %30.05 in10.0 miWest (280°)4.6 mphClear
12:55 AM30.2 °F21.2 °F69 %30.05 in10.0 miWest (270°)5.8 mphClear
1:15 AM30.2 °F21.2 °F69 %30.05 in10.0 miWest (280°)6.9 mphClear
1:35 AM30.2 °F21.2 °F69 %30.05 in10.0 miWest (270°)6.9 mphClear
2:15 AM30.2 °F21.2 °F69 %30.06 in10.0 miWest (280°)5.8 mphClear
2:35 AM30.2 °F21.2 °F69 %30.06 in10.0 miWest (270°)6.9 mphClear
2:55 AM30.2 °F21.2 °F69 %30.06 in10.0 miWest (280°)6.9 mphClear
3:16 AM30.2 °F21.2 °F69 %30.07 in10.0 miWest (280°)6.9 mphClear
3:35 AM28.4 °F21.2 °F74 %30.06 in10.0 miWest (270°)6.9 mphClear
3:55 AM30.2 °F19.4 °F64 %30.06 in10.0 miWest (280°)6.9 mphClear
4:35 AM28.4 °F19.4 °F69 %30.07 in10.0 miWest (280°)5.8 mphClear
4:55 AM28.4 °F19.4 °F69 %30.07 in10.0 miWest (280°)4.6 mphClear
5:15 AM28.4 °F19.4 °F69 %30.07 in10.0 miCalmClear
5:55 AM26.6 °F21.2 °F80 %30.08 in10.0 miCalmClear
6:15 AM28.4 °F19.4 °F69 %30.10 in10.0 miSouth (170°)5.8 mphClear
6:35 AM28.4 °F19.4 °F69 %30.12 in10.0 miCalmClear
6:56 AM26.6 °F21.2 °F80 %30.12 in10.0 miSSE (150°)3.5 mphClear
7:15 AM26.6 °F21.2 °F80 %30.12 in10.0 miSSE (160°)4.6 mphClear
7:35 AM26.6 °F21.2 °F80 %30.14 in10.0 miSSE (160°)4.6 mphClear
8:15 AM30.2 °F23.0 °F75 %30.14 in10.0 miSSE (150°)4.6 mphClear
8:35 AM30.2 °F21.2 °F69 %30.14 in10.0 miSouth (180°)5.8 mphClear
9:15 AM33.8 °F23.0 °F65 %30.14 in10.0 miSSW (200°)8.1 mphClear
9:35 AM35.6 °F28.4 °F75 %30.14 in10.0 miWSW (250°)4.6 mphClear
9:55 AM37.4 °F24.8 °F60 %30.13 in10.0 miSW (230°)4.6 mphClear
10:35 AM42.8 °F24.8 °F49 %30.13 in10.0 miSSW (210°)10.4 mphClear
10:55 AM42.8 °F24.8 °F49 %30.12 in10.0 miSSW (200°)8.1 mphClear
11:15 AM46.4 °F28.4 °F50 %30.12 in10.0 miSSW (210°)11.5 mphClear
11:36 AM46.4 °F28.4 °F50 %30.11 in10.0 miSSW (210°)9.2 mph16.1 mphClear
11:55 AM48.2 °F28.4 °F46 %30.11 in10.0 miSSW (210°)10.4 mphClear
12:15 PM50.0 °F28.4 °F43 %30.09 in10.0 miWSW (240°)11.5 mph17.3 mphClear
12:55 PM51.8 °F30.2 °F44 %30.09 in10.0 miSW (230°)12.7 mph17.3 mphClear
1:15 PM53.6 °F30.2 °F41 %30.07 in10.0 miWest (260°)11.5 mph17.3 mphClear
1:55 PM55.4 °F28.4 °F36 %30.06 in10.0 miWSW (240°)11.5 mph19.6 mphClear
2:15 PM55.4 °F28.4 °F36 %30.06 in10.0 miWest (270°)12.7 mph23.0 mphClear
2:55 PM55.4 °F26.6 °F33 %30.06 in10.0 miWSW (240°)16.1 mph21.9 mphClear
3:15 PM55.4 °F28.4 °F36 %30.06 in10.0 miWest (260°)12.7 mphClear
3:36 PM57.2 °F28.4 °F33 %30.05 in10.0 miWest (260°)15.0 mph18.4 mphClear
3:55 PM55.4 °F26.6 °F33 %30.07 in10.0 miNorth (350°)9.2 mph21.9 mphPartly Cloudy
4:15 PM53.6 °F26.6 °F35 %30.08 in10.0 miNNW (340°)5.8 mphPartly Cloudy
4:36 PM51.8 °F26.6 °F38 %30.09 in10.0 miNW (320°)6.9 mph17.3 mphPartly Cloudy
4:55 PM51.8 °F26.6 °F38 %30.11 in10.0 miWNW (300°)8.1 mphClear
5:36 PM48.2 °F26.6 °F43 %30.15 in10.0 miNW (320°)13.8 mph24.2 mphClear
5:55 PM46.4 °F24.8 °F43 %30.16 in10.0 miNW (310°)12.7 mph23.0 mphMostly Cloudy
6:15 PM46.4 °F26.6 °F46 %30.17 in10.0 miNW (320°)10.4 mph20.7 mphOvercast
6:36 PM44.6 °F24.8 °F46 %30.19 in10.0 miNW (320°)16.1 mph23.0 mphOvercast
7:15 PM37.4 °F24.8 °F60 %30.23 in10.0 miNNW (330°)12.7 mph20.7 mphOvercast
7:36 PM37.4 °F23.0 °F56 %30.25 in10.0 miNW (320°)13.8 mph20.7 mphOvercast
8:15 PM35.6 °F19.4 °F52 %30.29 in10.0 miNW (310°)9.2 mph23.0 mphOvercast
8:55 PM33.8 °F17.6 °F52 %30.31 in10.0 miNW (320°)13.8 mph23.0 mphOvercast
9:15 PM33.8 °F15.8 °F48 %30.33 in10.0 miNW (310°)10.4 mph21.9 mphOvercast
9:55 PM30.2 °F17.6 °F60 %30.36 in10.0 miNW (310°)10.4 mph24.2 mphMostly Cloudy
10:15 PM30.2 °F14.0 °F51 %30.37 in10.0 miNW (320°)9.2 mph17.3 mphMostly Cloudy
10:35 PM28.4 °F10.4 °F47 %30.37 in10.0 miNW (320°)9.2 mph20.7 mphPartly Cloudy
10:55 PM28.4 °F10.4 °F47 %30.38 in10.0 miNW (310°)8.1 mphClear
11:15 PM28.4 °F10.4 °F47 %30.39 in10.0 miNW (310°)10.4 mph19.6 mphClear
11:35 PM26.6 °F8.6 °F47 %30.39 in10.0 miNW (320°)8.1 mph17.3 mphClear
11:56 PM26.6 °F8.6 °F47 %30.39 in10.0 miWNW (300°)6.9 mph17.3 mphClear
Hourly data recorded from KBVX, located miles away from Casscoe, Arkansas







STORIES FROM OUR PARTNERS